OBJECT AH, 63241

Orbit data source: Space-Track

You're viewing an Uncataloged Satellite

Recently launched and/or uncataloged satellites may have evolving metadata. Metadata may include but not limited to: Owner, Maufacturer, Bus, Motor, and Mission.

OBJECT AH, 63241 is a satellite in SSO that was launched on Sat, 15 Mar 2025 UTC via an FALCON 9 launch vehicle from the Air Force Western Test Range (AFWTR). Unknown objects in Earth's orbit typically refer to objects detected orbiting the Earth but have not yet been identified or cataloged. These objects could be anything from previously untracked satellites, spent rocket stages, debris from satellite collisions, or even natural meteoroids temporarily captured by Earth's gravity.

Loading next visibility...
Identifier
63241, 2025-052AH
Orbit
SSO
Country
Flag of TBDTBD
Related business
None
Manufacturer
Unknown
Mission
Operational Commercial Technology
Bus & Motor
Unknown
Mass
Unknown
Launch date (UTC)
2025-03-15 (1 year ago)
Launch vehicle
FALCON 9
Launch site
Air Force Western Test Range (AFWTR)
Object type
Unknown
Shape & HBR
Box, 0.2 m
Radar Cross Section
0.054 m², Small (<0.1 m²)

Expand to show TLE details & history
Last TLE update: 22 hours ago

TLE from 22 hours ago
0 OBJECT AH
1 63241U 25052AH  26103.60057292  .00006061  00000-0  23552-3 0  9996
2 63241  97.3929 357.7112 0008049  40.4222 319.7613 15.26396956 60084
Epoch: 2026-04-13T14:24Z
TLE epoch observation values (Epoch: 2026-04-13T14:24:49.500Z)
Latitude
-0.00004°
Longitude
-60.28389°
Altitude
485.476 km
Speed
7.625 km/s
True Right ascension
23h 50m 50s
True Declination
0° 00' 00"
Sunlit
Object was in daylight at epoch
Visualization orbit readout
Latitude
Unknown
Longitude
Unknown
Altitude
Unknown
Speed
Unknown
Apparent Right ascension
Unknown
Apparent Declination
Unknown
Sunlit
N/A
Visualization observer readout
Local Sidereal Time
19:15:10
Azimuth
Unknown
Elevation
Unknown
Doppler factor
Unknown
Orbital elements
Apogee altitude
489.074 km
Perigee altitude
478.028 km
Semi-major axis
6,861.688 km
Eccentricity
0.0008
Inclination
97.3929°
RAAN
357.7112°
Arg. of periapsis
40.4222°
True anomaly
319.70167°
Mean anomaly
319.7613°
Eccentric anomaly
319.73149°
Mean motion
3.81853 °/min
Orbital period
94.28 mins
BSTAR
0.00023552
Loading maneuver chart data...
Computing Atmospheric mass density...
Loading historical data...
Loading historical data...
Loading historical data...
Loading historical data...
Loading historical data...
Loading historical data...
Loading historical data...

Documentation

Showing up to 5 results
|